sat.trackr.live / text

‹ back to catalog

STARLINK-30825

NORAD 58384 · 2023-178L

PAYLOAD ACTIVE UNKNOWN

§ Identity

Operator
Country
US
Launch date
2023-11-20
Launch site
AFWTR
Launch vehicle
Mass (kg)
RCS (m²)

Purposes: comms

External: N2YO · Heavens-Above · Gunter

§ Orbital elements

Epoch: 2026-05-25T00:48:03.796128Z

Period
93.85 min
Inclination
53.1612°
Eccentricity
0.0001050
Mean motion
15.34394344 rev/d
Perigee alt
462.0 km
Apogee alt
463.4 km
Semi-major
6,840.9 km
B*
4.2891e-5
RAAN
5.4691°
Arg perigee
80.8794°
Mean anomaly
279.2327°
Rev number
14,159

§ Raw data

STARLINK-308251 58384U 23178L   26145.03337727  .00001073  00000+0  42891-4 0  99972 58384  53.1612   5.4691 0001050  80.8794 279.2327 15.34394344141597

JSON: /api/v1/satellites/58384 · /tle

For live sub-satellite position, see the globe view (requires WebGL).

§ Visibility from observer

Set your observer location to see the next 7 days of passes ≥ 10°. The values pass through the URL so the page stays shareable.

No JS? Fill the form by hand. The geolocation button needs JavaScript.